Вернуться в каталог

STARLINK-36250

АктивенСвязьVLEO
NORAD 68513·PAYLOAD·🇺🇸 United States

Запущен Mar 30, 2026 с Cape Canaveral Space Force Station

Loading…

Ближайшие Пролёты (ближайшие 24 часа)

TLE

СвежийSource: CelesTrak SupGP

Эпоха: Sep 15, 2026, 03:49 UTC

1 68513C 26068F   26258.15951389  .00046016  00000+0  13593-2 0  2586
2 68513  53.1592 324.4036 0001250  91.1231 180.3192 15.34374432    18

Отслеживайте STARLINK-36250 в реальном времени с AllMySat

Download on the App Store